STARLINK-4573, 53623

Orbit data source: Space-Track

STARLINK-4573, 53623 is a payload satellite owned by SpaceX/Seattle (US) in LEO that was launched on Sun, 28 Aug 2022 UTC via an FALCON 9 launch vehicle from the Air Force Eastern Test Range (AFETR). Payload-class satellites include a variety of spacecraft equipped with specific instruments for various scientific and technological missions. These include communications satellites like Starlink; space stations such as the ISS; scientific satellites like the Hubble; Earth observation satellites from companies like Planet Labs, Umbra, and HawkEye 360; GPS; miniature CubeSats for education and research; and military/defense satellites.

Loading next visibility...
Identifier
53623, 2022-104AM
Orbit
LEO
Country
Flag of USUS
Related business
Manufacturer
SpaceX/Seattle
Mission
Operational Commercial Communications
Bus & Motor
STARLINK, Unknown motor
Mass
300 kg wet, ~290 kg dry
Launch date (UTC)
2022-08-28 (3 years ago)
Launch vehicle
FALCON 9
Launch site
Air Force Eastern Test Range (AFETR)
Object type
Payload
Rocket body
Debris
Shape & HBR
Box + 1 Pan, 10.1 m
Radar Cross Section
13.562 m², Large (>1 m²)

Expand to show TLE details & history
Last TLE update: 1 day ago

TLE from 1 day ago
0 STARLINK-4573
1 53623U 22104AM  25301.18898911  .00001229  00000-0  95258-4 0  9991
2 53623  53.2171 108.8144 0001385  87.4640 272.6510 15.08842715175740
Epoch: 2025-10-28T04:32Z
TLE epoch observation values (Epoch: 2025-10-28T04:32:08.659Z)
Latitude
-0.00006°
Longitude
3.99822°
Altitude
540.588 km
Speed
7.593 km/s
True Right ascension
07h 15m 15s
True Declination
0° 00' 00"
Sunlit
Object was in daylight at epoch
Visualization orbit readout
Latitude
Unknown
Longitude
Unknown
Altitude
Unknown
Speed
Unknown
Apparent Right ascension
Unknown
Apparent Declination
Unknown
Sunlit
N/A
Visualization observer readout
Local Sidereal Time
00:27:57
Azimuth
Unknown
Elevation
Unknown
Doppler factor
Unknown
Orbital elements
Apogee altitude
540.938 km
Perigee altitude
539.022 km
Semi-major axis
6,918.117 km
Eccentricity
0.00014
Inclination
53.2171°
RAAN
108.8144°
Arg. of periapsis
87.464°
True anomaly
272.63515°
Mean anomaly
272.651°
Eccentric anomaly
272.64307°
Mean motion
3.77191 °/min
Orbital period
95.44 mins
BSTAR
0.000095258
Loading maneuver chart data...
Computing Atmospheric mass density...
Loading historical data...
Loading historical data...
Loading historical data...
Loading historical data...
Loading historical data...
Loading historical data...
Loading historical data...

Documentation

Showing up to 5 results
|